TimeEST,TemperatureF,Dew PointF,Humidity,Sea Level PressureIn,VisibilityMPH,Wind Direction,Wind SpeedMPH,Gust SpeedMPH,PrecipitationIn,Events,Conditions,WindDirDegrees,DateUTC
12:53 AM,70.0,64.0,81,29.88,10.0,Calm,Calm,-,N/A,,Scattered Clouds,0,2012-11-07 05:53:00
1:53 AM,69.1,64.0,84,29.87,10.0,West,4.6,-,N/A,,Mostly Cloudy,280,2012-11-07 06:53:00
2:53 AM,70.0,64.9,84,29.87,10.0,WNW,9.2,-,N/A,,Overcast,290,2012-11-07 07:53:00
3:53 AM,66.9,61.0,81,29.88,10.0,NW,9.2,-,N/A,,Mostly Cloudy,310,2012-11-07 08:53:00
4:53 AM,64.9,57.0,75,29.90,10.0,NW,8.1,-,N/A,,Partly Cloudy,310,2012-11-07 09:53:00
5:53 AM,64.0,55.9,75,29.91,10.0,NW,8.1,-,N/A,,Scattered Clouds,310,2012-11-07 10:53:00
6:53 AM,63.0,55.9,78,29.93,10.0,NW,8.1,-,N/A,,Clear,310,2012-11-07 11:53:00
7:53 AM,66.0,55.0,68,29.95,10.0,NW,8.1,-,N/A,,Clear,320,2012-11-07 12:53:00
8:53 AM,68.0,53.1,59,29.97,10.0,NW,17.3,-,N/A,,Clear,320,2012-11-07 13:53:00
9:53 AM,69.1,55.0,61,29.97,10.0,NW,15.0,27.6,N/A,,Clear,320,2012-11-07 14:53:00
10:53 AM,72.0,54.0,53,29.96,10.0,NW,16.1,-,N/A,,Clear,320,2012-11-07 15:53:00
11:53 AM,73.9,53.1,48,29.94,10.0,NW,13.8,21.9,N/A,,Clear,310,2012-11-07 16:53:00
12:53 PM,72.0,53.1,51,29.91,10.0,WNW,17.3,-,N/A,,Partly Cloudy,290,2012-11-07 17:53:00
1:53 PM,73.9,54.0,50,29.90,10.0,WNW,18.4,-,N/A,,Scattered Clouds,290,2012-11-07 18:53:00
2:53 PM,72.0,54.0,53,29.89,10.0,West,16.1,23.0,N/A,,Partly Cloudy,280,2012-11-07 19:53:00
3:53 PM,72.0,53.1,51,29.88,10.0,WNW,16.1,-,N/A,,Clear,300,2012-11-07 20:53:00
4:53 PM,71.1,52.0,51,29.90,10.0,WNW,15.0,23.0,N/A,,Clear,290,2012-11-07 21:53:00
5:53 PM,68.0,52.0,56,29.91,10.0,WNW,9.2,-,N/A,,Clear,300,2012-11-07 22:53:00
6:53 PM,66.9,51.1,57,29.94,10.0,NNW,8.1,-,N/A,,Clear,330,2012-11-07 23:53:00
7:53 PM,63.0,53.1,70,29.96,10.0,NW,5.8,-,N/A,,Clear,310,2012-11-08 00:53:00
8:53 PM,63.0,50.0,63,29.99,10.0,NW,9.2,-,N/A,,Clear,310,2012-11-08 01:53:00
9:53 PM,61.0,50.0,67,30.01,10.0,NW,8.1,-,N/A,,Clear,310,2012-11-08 02:53:00
10:53 PM,61.0,48.0,62,30.01,10.0,NW,10.4,-,N/A,,Clear,320,2012-11-08 03:53:00
11:53 PM,57.9,48.9,72,30.01,10.0,NW,5.8,-,N/A,,Clear,310,2012-11-08 04:53:00